Flag for China Weather past 2 weeks in Taiyuan, Shanxi, China

Now
88 °F

Passing clouds.


Feels Like: 86 °F
Forecast: 63 / 90 °F
Wind: 6 mph from West

Location: Taiyuan Airport

Current Time: Jul 7, 2015 at 2:56:53 PM

Latest Report: Jul 7, 2015 at 2:00 PM


Visibility: 5 mi

Pressure: 29.83 "Hg (27.30 "Hg at 790m altitude)

Humidity: 33%

Dew point: 55 °F

Location of TaiyuanLocation

Historic Weather in Taiyuan — Graph

°F

Taiyuan temperature yesterday

Maximum temperature yesterday: 88 °F (at 2:30 PM)
Minimum temperature yesterday: 68 °F (at 1:30 AM)
Average temperature yesterday: 76 °F

Past Weeks' High & Low Weather Summary

 TemperatureHumidityPressure
High95 °F (Jun 27, 3:30 PM)94% (Jun 29, 3:00 AM)29.92 "Hg (Jun 29, 3:00 AM)
Low59 °F (Jul 1, 2:00 AM)15% (Jul 3, 3:30 PM)29.53 "Hg (Jun 26, 2:30 PM)
Average75 °F54%29.76 "Hg
* Reported Jun 22 1:00 PM — Jul 7 1:30 PM, Taiyuan, Weather by CustomWeather, © 2015

Note: Actual official high and low records may vary slightly from our data, if they occured in-between our weather recording intervals... More about our weather records

Advertising

Taiyuan weather history for previous 24 hours

 ConditionsComfort  
Time TempWeatherWind HumidityBarometerVisibility
1:30 PM
Tue, Jul 7
86 °FClear.1 mph35%29.86 "Hg5 mi
1:00 PM86 °FClear.3 mph35%29.86 "Hg5 mi
12:30 PM82 °FHaze.3 mph42%29.89 "Hg3 mi
12:00 PM82 °FHaze.3 mph42%29.89 "Hg3 mi
11:30 AM82 °FHaze.3 mph42%29.89 "Hg3 mi
10:30 AM79 °FHaze.3 mph48%29.92 "Hg2 mi
10:00 AM77 °FHaze.3 mph54%29.92 "Hg1 mi
9:30 AM77 °FHaze.1 mph54%29.92 "Hg1 mi
9:00 AM73 °FHaze.3 mph61%29.92 "Hg2 mi
8:30 AM73 °FHaze.1 mph61%29.92 "Hg2 mi
8:00 AM72 °FHaze.3 mph65%29.92 "Hg2 mi
7:30 AM72 °FHaze.6 mph65%29.92 "Hg1 mi
7:00 AM70 °FFog.6 mph69%29.92 "Hg2 mi
6:30 AM68 °FFog.3 mph73%29.92 "Hg2 mi
5:30 AM68 °FFog.3 mph73%29.89 "Hg2 mi
5:00 AM66 °FHaze.6 mph78%29.89 "Hg2 mi
4:30 AM66 °FHaze.3 mph78%29.89 "Hg2 mi
4:00 AM68 °FHaze.3 mph69%29.89 "Hg2 mi
3:30 AM68 °FHaze.1 mph69%29.89 "Hg2 mi
3:00 AM68 °FHaze.3 mph69%29.89 "Hg3 mi
2:30 AM70 °FHaze.8 mph64%29.89 "Hg3 mi
2:00 AM70 °FHaze.6 mph64%29.89 "Hg3 mi
1:30 AM70 °FHaze.8 mph69%29.89 "Hg3 mi
1:00 AM70 °FHaze.10 mph69%29.89 "Hg3 mi
12:30 AM72 °FHaze.13 mph65%29.89 "Hg3 mi
12:00 AM72 °FHaze.15 mph65%29.89 "Hg3 mi
11:30 PM
Mon, Jul 6
72 °FHaze.15 mph65%29.89 "Hg3 mi
11:00 PM72 °FClear.13 mph65%29.89 "Hg4 mi
10:30 PM73 °FClear.15 mph61%29.89 "Hg4 mi
10:00 PM73 °FClear.13 mph61%29.89 "Hg4 mi
9:30 PM75 °FClear.13 mph57%29.89 "Hg4 mi
9:00 PM75 °FClear.13 mph57%29.86 "Hg4 mi
8:30 PM77 °FClear.10 mph54%29.86 "Hg4 mi
8:00 PM79 °FClear.6 mph51%29.83 "Hg5 mi
7:30 PM79 °FSunny.3 mph48%29.83 "Hg10 mi
7:00 PM82 °FSunny.3 mph40%29.83 "Hg10 mi
6:30 PM84 °FSunny.3 mph35%29.80 "Hg10 mi
6:00 PM84 °FPassing clouds.3 mph35%29.80 "HgN/A
5:30 PM84 °FPassing clouds.6 mph35%29.80 "HgN/A
5:00 PM86 °FPassing clouds.6 mph27%29.80 "HgN/A
4:30 PM86 °FPassing clouds.6 mph24%29.83 "HgN/A
4:00 PM88 °FPassing clouds.3 mph22%29.83 "HgN/A
3:30 PM88 °FPassing clouds.3 mph22%29.83 "HgN/A
3:00 PM88 °FPassing clouds.3 mph19%29.83 "HgN/A
2:30 PM88 °FSunny.3 mph22%29.83 "Hg10 mi
2:00 PM86 °FSunny.3 mph27%29.86 "Hg10 mi
Weather by CustomWeather, © 2015

See weather overviewHow to use our weather pages